Location: Santa Cristina
(46.5667°N, 11.7167°E)
Time: 17:29:03
(UTC+00:00)

Landsat 4 - Pass Details

Date: 21 April 2021
Orbit: 503 x 522 km, 98.2° (Epoch: 11 May)

Event Time Altitude Azimuth Distance (km) Brightness Sun altitude
Rises 01:29:58 0° 10° (N) 2,615 8.3 -23.9°
Reaches altitude 10° 01:32:05 10° 6° (N) 1,726 7.1 -23.7°
Enters shadow 01:35:03 48° 332° (NNW) 669 4.3 -23.3°
